Lid_Strength_Index
-1 -1 3 4 9 8 11 11 9 8 7 5 5 5 6 5 6 8 1 0 0 0 -1 -1 -1 -1 -2 -2 -2 -2 -2 -2 -2 -2 -2 -2 -2 -2 -2 -2 -2 -2 -2 -2 -2 -2 -2 -1 -1
-1 3 3 5 10 12 11 10 9 9 6 5 5 5 6 6 4 3 2 0 -0 -0 -1 -1 -1 -1 -1 -1 -1 -2 -2 -2 -2 -2 -2 -2 -2 -2 -2 -2 -2 -2 -2 -2 -2 -2 -1 -1 -1
1 3 6 7 10 12 11 9 9 7 6 6 6 4 5 5 3 2 1 0 -0 -0 -1 -1 -1 -1 -1 -1 -1 -1 -2 -2 -2 -2 -2 -2 -2 -2 -2 -3 -2 -2 -2 -2 -2 -1 -1 -1 -1
3 3 5 9 10 9 9 8 7 7 6 5 5 6 5 2 2 1 0 -0 0 -0 -1 -1 -1 -1 -1 -1 -1 -1 -2 -2 -2 -2 -2 -2 -2 -2 -2 -2 -2 -2 -2 -2 -1 -1 -1 -1 -1
3 5 10 10 10 8 6 8 7 8 7 6 4 6 5 2 1 1 0 0 0 0 -1 -1 -1 -1 -1 -1 -1 -1 -1 -2 -2 -2 -2 -2 -2 -2 -2 -2 -2 -2 -2 -2 -2 -1 -1 -1 -1
7 6 10 13 11 8 7 7 8 8 7 6 5 5 5 2 2 1 0 0 -0 0 -0 -1 -1 -1 -1 -1 -1 -1 -1 -1 -1 -2 -2 -2 -2 -2 -2 -2 -2 -2 -2 -2 -1 -1 -1 -1 -1
8 8 11 11 11 10 8 7 8 7 6 5 4 6 4 3 1 1 0 0 -0 -0 -0 -1 -1 -1 -1 -1 -1 -1 -1 -1 -1 -1 -1 -2 -2 -2 -2 -2 -2 -2 -2 -2 -1 -1 -1 -1 -1
7 7 11 10 11 10 7 6 6 6 6 4 3 6 5 3 1 1 0 0 0 0 -0 -0 -1 -1 -1 -1 -1 -1 -1 -1 -1 -1 -1 -1 -2 -2 -2 -2 -2 -2 -2 -2 -2 -1 -1 -1 -1
5 10 12 11 10 9 6 7 5 5 6 6 4 4 3 2 1 1 2 1 1 1 0 -0 -0 -1 -1 -1 -1 -1 -1 -1 -1 -1 -1 -1 -1 -2 -2 -2 -2 -2 -2 -2 -1 -1 -1 -1 -1
6 9 10 8 8 8 7 6 6 7 7 6 5 4 3 2 2 3 3 2 2 1 1 0 -0 -0 -0 -0 -1 -1 -1 -1 -1 -1 -2 -1 -2 -2 -1 -2 -2 -2 -2 -2 -1 -1 -1 -1 -1
6 9 7 7 7 7 7 6 5 6 8 6 6 5 4 3 3 3 2 2 2 1 1 0 -0 -1 -0 -0 -0 -1 -1 -1 -1 -1 -2 -2 -1 -1 -1 -1 -1 -2 -1 -1 -1 -1 -1 -1 -1
9 7 6 6 6 6 7 6 6 6 7 5 4 4 4 4 3 3 2 2 1 1 1 0 -0 -0 -0 -0 -0 -0 -0 -0 -0 -1 -2 -1 -0 -1 -0 -0 -1 -1 -1 -1 -1 -1 -1 -1 -1
8 8 7 6 5 6 5 6 6 6 4 3 3 3 3 3 3 2 2 2 1 1 1 0 -0 0 -0 0 -0 -0 -0 -0 -0 -1 -1 -1 -0 -0 -0 -0 -1 -1 -1 -1 -0 -1 -0 -1 -1
8 7 7 6 6 6 7 6 6 5 4 4 4 4 4 3 3 3 3 2 1 1 1 -0 -0 -0 -0 0 -0 0 -0 -0 -0 -0 -1 -1 -1 -0 -0 -0 -0 -0 -1 -1 -1 -0 -0 -0 -1
9 10 9 7 6 7 6 8 7 5 5 5 5 4 4 4 4 3 2 1 1 1 0 -0 -0 -1 0 0 0 -0 -0 -0 -0 -0 -1 -1 -1 -1 -0 -0 -0 -0 -1 -1 -1 -1 -1 -0 -1
9 10 13 9 9 8 7 11 7 5 6 6 6 5 5 4 4 3 1 1 1 1 0 0 1 1 -0 0 0 0 -0 -0 -0 -0 -1 -1 -1 -1 -0 -0 -0 -1 -1 -0 -0 -0 0 0 -0
10 12 11 11 9 9 9 10 7 6 6 6 5 5 5 5 4 3 2 1 1 0 1 0 -0 0 0 -0 -0 -0 -0 -0 -0 -0 -0 -1 -1 -1 -0 -0 -0 -1 -0 -0 -0 0 0 0 0
13 13 11 11 9 9 10 10 8 6 6 6 6 5 5 5 4 2 2 1 1 0 0 0 0 -0 0 0 0 0 0 0 -0 -0 -0 -1 -1 -1 -0 -0 -0 -1 -0 0 0 0 0 0 1
11 11 11 10 8 9 10 10 9 7 7 7 7 6 5 5 4 3 2 1 1 1 1 1 0 0 0 1 1 1 2 1 1 0 -0 -0 -0 -0 -0 -0 -0 -0 0 1 -0 0 1 1 0
11 12 12 10 9 9 9 10 9 9 9 8 7 7 6 5 5 4 2 2 1 1 1 1 0 0 1 1 1 1 1 1 1 0 -0 -0 -0 -0 -0 -0 1 0 0 0 0 0 1 1 0
11 12 12 12 10 9 10 11 9 8 8 7 6 7 6 5 5 3 3 2 1 1 1 1 0 1 1 0 1 1 1 1 1 1 1 0 -0 -0 -0 0 1 -0 0 1 0 0 1 2 1
12 10 11 11 11 13 10 15 10 9 8 8 7 6 6 5 5 4 2 2 2 2 1 0 1 1 1 0 1 1 2 3 2 1 1 0 -0 -0 0 0 -0 -0 -0 0 0 0 1 1 3
11 9 10 11 12 12 12 14 12 9 10 8 7 6 6 5 5 5 4 3 2 1 1 1 1 1 1 1 1 2 2 2 1 1 1 0 0 -0 0 -0 -0 -0 0 0 -0 0 1 1 1
7 9 9 10 12 16 13 14 13 11 10 8 7 7 6 6 5 5 4 4 3 2 1 2 2 1 1 1 1 1 2 2 2 2 2 1 1 0 -0 -0 -0 -0 -0 0 0 -0 0 1 1
8 10 14 16 16 18 12 14 13 10 9 9 8 7 6 5 5 5 4 4 3 2 2 2 2 2 1 1 1 1 1 1 2 2 2 1 1 1 0 -0 -0 0 -0 -0 -0 -0 0 0 1
10 10 13 18 17 17 13 16 13 9 7 7 7 6 5 5 4 4 4 4 3 2 3 2 2 2 2 1 1 1 1 1 1 1 1 1 1 1 -0 -0 -0 -0 -0 -0 -0 0 0 0 1
10 12 9 12 12 15 14 13 11 9 8 7 7 7 6 5 4 4 3 3 3 3 3 2 2 2 2 1 1 1 1 1 1 1 0 1 0 0 0 -0 0 -0 -0 -0 -0 0 0 0 0
8 8 13 12 16 18 16 15 14 11 10 8 7 7 6 5 4 4 4 4 3 3 2 2 2 2 2 1 1 1 1 1 1 1 1 0 0 0 0 0 0 -0 -0 -0 -0 0 0 0 1
9 10 10 10 12 15 16 15 9 9 9 8 7 6 6 5 5 5 4 4 3 3 3 2 2 2 2 1 1 1 1 1 1 1 1 0 0 0 0 0 0 0 0 -0 0 0 0 1 1
9 10 10 13 14 13 15 15 9 8 8 7 7 7 5 4 4 5 5 4 4 3 3 3 2 2 2 1 1 1 1 1 1 1 0 0 0 0 0 0 0 0 0 0 0 1 1 1 2